Location: Tel Aviv
(32.0670°N, 34.7670°E)
Time: 11:20:14
(UTC+03:00)

Explorer 11/Cluster Stage 4 - Pass Details

Date: 21 September 2024
Orbit: 464 x 1208 km, 28.8° (Epoch: 06 October)

Event Time Altitude Azimuth Distance (km) Brightness Sun altitude
Rises 10:09:11 0° 270° (W) 3,705 9.7 43.5°
Reaches altitude 10° 10:12:09 10° 259° (W) 2,862 9.3 44.0°
Maximum altitude 10:18:01 27° 204° (SSW) 2,017 9.1 45.0°
Drops below altitude 10° 10:24:23 10° 150° (SSE) 3,121 10.5 46.1°
Sets 10:27:47 0° 139° (SE) 4,100 11.0 46.6°
